Hourly Data Report for April 16, 2019

MIRAMICHI RCS
NEW BRUNSWICK
Current Station Operator: ECCC - MSC

47°00'34.000" N
65°27'54.000" W
33.00 m
8100989
71744
ACQ

Download Data

Hourly Data (April 2019)
Hourly Data Report for April 16, 2019
TIME
LST
Temp Definition
°C
Dew Point Definition
°C
Rel Hum Definition
%
Precip. Amount Definition
mm

Wind Dir Definition
10's deg

Wind Spd Definition
km/h
Visibility Definition
km
Stn Press Definition
kPa
Hmdx Definition


Wind Chill Definition


Weather Definition


00:00 0.8 0.1 95 0.0 28 4   98.29     LegendNANA
01:00 1.0 0.2 94 0.0 27 7   98.30     LegendNANA
02:00 1.1 0.1 93 0.0 29 8   98.23     LegendNANA
03:00 1.4 -0.1 89 0.0 30 8   98.24     LegendNANA
04:00 1.3 -0.3 89 0.0 29 9   98.25     LegendNANA
05:00 1.5 -0.6 86 0.0 30 11   98.31     LegendNANA
06:00 1.4 -0.6 87 0.0 30 9   98.39     LegendNANA
07:00 1.9 -0.8 83 0.0 32 13   98.48     LegendNANA
08:00 2.2 -1.2 78 0.0 32 13   98.55     LegendNANA
09:00 2.6 -1.2 76 0.0 31 13   98.59     LegendNANA
10:00 3.6 -1.6 69 0.0 32 19   98.65     LegendNANA
11:00 4.0 -1.6 67 0.0 32 15   98.73     LegendNANA
12:00 4.8 -2.5 59 0.0 34 18   98.75     LegendNANA
13:00 4.7 -3.0 57 0.0 32 18   98.82     LegendNANA
14:00 4.7 -3.9 53 0.0 34 21   98.92     LegendNANA
15:00 4.6 -4.2 53 0.0 31 20   99.02     LegendNANA
16:00 4.3 -4.5 53 0.0 32 19   99.15     LegendNANA
17:00 3.7 -3.9 57 0.0 32 17   99.28     LegendNANA
18:00 3.2 -3.3 63 0.0 32 16   99.41     LegendNANA
19:00 1.5 -1.0 84 0.0 32 18   99.53     LegendNANA
20:00 1.6 -1.2 81 0.0 31 13   99.64     LegendNANA
21:00 1.8 -1.3 80 0.0 32 18   99.76     LegendNANA
22:00 1.6 -1.1 82 0.0 33 13   99.85     LegendNANA
23:00 1.7 -0.9 83 0.0 33 14   99.96     LegendNANA

Notes on Data Quality.

Legend

  • E = Estimated
  • M = Missing
  • NA = Not Available*
  • [empty] = Indicates an unobserved value
Date modified: